Stations météo

Publicité
Nice, France (7690): Température de l'air & dewpoint: 10.02.2019 18:00:00 - 16.02.2019 18:00:00 (CET)Nice, France (7690): Température de l'air 5cm: 10.02.2019 18:00:00 - 16.02.2019 18:00:00 (CET)Nice, France (7690): Température de l'air -20cm & Température de l'air -100cm: 10.02.2019 18:00:00 - 16.02.2019 18:00:00 (CET)Nice, France (7690): Vitesse du vent & gusts: 10.02.2019 18:00:00 - 16.02.2019 18:00:00 (CET)Nice, France (7690): Direction du vent: 10.02.2019 18:00:00 - 16.02.2019 18:00:00 (CET)Nice, France (7690): reduced air pressure: 10.02.2019 18:00:00 - 16.02.2019 18:00:00 (CET)Nice, France (7690): visibility: 10.02.2019 18:00:00 - 16.02.2019 18:00:00 (CET)Nice, France (7690): Ensoleillement: 10.02.2019 18:00:00 - 16.02.2019 18:00:00 (CET)Nice, France (7690): Quantités de précipitations: 10.02.2019 18:00:00 - 16.02.2019 18:00:00 (CET)
Date & Time tt [°C] td [°C] tt 5cm [°C] tt -20cm [°C] tt -100cm [°C] ff [km/h] ff [knt] fx [km/h] fx [knt] dd ppp [hPa] vv [km] sd [min] rr [mm]
16.02.2019 18:00:00 13,3 7,1 7,8 10,2 11,2 0 0 4 2 N 1029,6 6 39 0,0
16.02.2019 17:00:00 15,0 8,0 19,2 10,2 11,3 2 1 9 5 S 1029,8 4,5 60 0,0
16.02.2019 16:00:00 15,3 8,1 21,0 10,2 11,2 6 4 8 5 S 1030,3 5 60 0,0
16.02.2019 15:00:00 15,8 7,0 21,8 10,2 11,2 6 3 12 7 SSE 1030,4 8 60 0,0
16.02.2019 14:00:00 16,3 5,3 22,6 10,3 11,2 8 5 13 7 S 1030,7 20 60 0,0
16.02.2019 13:00:00 16,8 6,9 23,7 10,2 11,2 10 5 12 7 S 1031,0 40 60 0,0
16.02.2019 12:00:00 17,4 -1,3 19,1 10,2 11,2 5 3 19 11 NW 1031,1 40 60 0,0
16.02.2019 11:00:00 14,9 -0,1 15,1 10,3 11,2 14 8 27 15 NNW 1031,3 40 60 0,0
16.02.2019 10:00:00 12,1 -0,1 12,4 10,2 11,2 21 12 30 16 NNW 1031,1 30 60 0,0
16.02.2019 09:00:00 10,0 -0,5 8,5 10,2 11,2 19 11 34 18 NNW 1031,2 30 60 0,0
16.02.2019 08:00:00 8,7 -0,6 7,2 10,2 11,1 23 12 37 20 NNW 1030,7 30 9 0,0
16.02.2019 07:00:00 8,5 -0,5 7,3 10,2 11,2 16 9 29 16 NNW 1030,4 40 0 0,0
16.02.2019 06:00:00 8,9 -0,2 7,5 10,2 11,2 21 11 29 16 NNW 1030,2 30 0 0,0
16.02.2019 05:00:00 9,4 0,0 7,9 10,2 11,2 17 9 29 16 NNW 1030,2 30 0 0,0
16.02.2019 04:00:00 9,3 0,5 7,6 10,2 11,2 18 10 24 13 NNW 1030,2 30 0 0,0
16.02.2019 03:00:00 9,7 1,1 7,6 10,1 11,2 14 8 25 13 NNW 1030,2 60 0 0,0
16.02.2019 02:00:00 9,0 2,3 7,2 10,1 11,1 16 9 23 13 NNW 1030,5 30 0 0,0
16.02.2019 01:00:00 8,8 3,2 7,0 10,1 11,2 15 8 20 11 NNW 1030,8 30 0 0,0
16.02.2019 00:00:00 8,6 4,0 6,9 10,1 11,1 12 7 22 12 NNW 1030,6 30 0 0,0
15.02.2019 23:00:00 8,8 5,4 7,3 10,1 11,1 18 10 23 12 NW 1030,3 30 0 0,0
15.02.2019 22:00:00 9,1 6,0 7,4 10,1 11,2 13 7 16 8 NW 1030,3 40 0 0,0
15.02.2019 21:00:00 9,3 6,2 7,3 10,1 11,2 8 4 12 6 NNW 1029,9 40 0 0,0
15.02.2019 20:00:00 10,6 7,3 3,9 10,1 11,3 7 4 9 5 NNW 1029,2 40 0 0,0
15.02.2019 19:00:00 11,4 7,7 5,2 10,1 11,1 0 0 6 3 N 1029,0 40 0 0,0
15.02.2019 18:00:00 12,6 8,1 10,0 10,1 11,1 3 2 4 2 ESE 1028,7 40 38 0,0
15.02.2019 17:00:00 13,9 8,9 17,9 10,1 11,2 3 2 8 4 SSE 1028,6 30 60 0,0
15.02.2019 16:00:00 14,4 8,6 20,6 10,1 11,2 5 3 6 4 SSE 1028,7 30 60 0,0
15.02.2019 15:00:00 14,7 7,5 19,1 10,1 11,2 5 3 14 7 SSE 1029,4 30 60 0,0
15.02.2019 14:00:00 14,3 6,9 19,3 10,1 11,1 8 5 12 7 SE 1029,8 40 60 0,0
15.02.2019 13:00:00 13,9 9,1 19,4 10,1 11,1 10 5 14 8 SE 1030,5 40 60 0,0
15.02.2019 12:00:00 13,8 9,0 19,3 10,1 11,1 11 6 13 7 SE 1030,9 40 60 0,0
15.02.2019 11:00:00 14,5 7,1 16,3 10,1 11,1 4 2 22 12 SE 1031,1 40 60 0,0
15.02.2019 10:00:00 12,5 -0,1 13,1 10,1 11,1 11 6 18 10 NNW 1031,2 40 60 0,0
15.02.2019 09:00:00 10,2 -0,6 8,0 10,1 11,2 13 7 25 14 NNW 1031,3 40 60 0,0
15.02.2019 08:00:00 8,4 -0,9 6,5 10,1 11,2 17 9 38 20 NNW 1031,2 40 8 0,0
15.02.2019 07:00:00 8,0 -0,8 6,0 10,1 11,1 14 7 23 12 NNW 1031,2 30 0 0,0
15.02.2019 06:00:00 8,0 -0,3 6,1 10,0 11,1 15 8 19 11 NNW 1031,4 30 0 0,0
15.02.2019 05:00:00 8,0 0,0 6,2 10,0 11,2 14 8 18 10 NNW 1031,4 30 0 0,0
15.02.2019 04:00:00 8,2 0,2 5,8 10,0 11,2 10 5 22 12 NNW 1031,3 30 0 0,0
15.02.2019 03:00:00 8,6 0,6 6,8 10,0 11,2 13 7 26 14 NNW 1031,1 30 0 0,0
15.02.2019 02:00:00 8,8 1,2 7,0 10,0 11,2 14 8 19 10 NNW 1031,7 30 0 0,0
15.02.2019 01:00:00 8,9 1,5 6,9 10,0 11,1 13 7 15 8 NNW 1031,9 30 0 0,0
15.02.2019 00:00:00 8,6 2,2 6,8 10,0 11,1 11 6 18 10 NNW 1031,7 30 0 0,0
14.02.2019 23:00:00 8,8 2,8 7,2 10,0 11,2 13 7 16 9 NNW 1031,7 30 0 0,0
14.02.2019 22:00:00 8,8 3,6 7,1 10,0 11,2 10 5 16 9 NNW 1031,9 30 0 0,0
14.02.2019 21:00:00 9,5 4,7 7,6 9,9 11,3 9 5 13 7 NNW 1031,9 30 0 0,0
14.02.2019 20:00:00 10,1 6,8 6,5 10,0 11,2 12 6 15 8 NNE 1032,1 30 0 0,0
14.02.2019 19:00:00 12,6 9,4 10,9 9,9 11,2 0 0 17 9 N 1032,1 30 0 0,0
14.02.2019 18:00:00 13,0 9,4 12,0 10,0 11,1 13 7 18 10 SSW 1031,9 30 37 0,0
14.02.2019 17:00:00 13,8 8,4 16,2 9,9 11,1 11 6 16 9 SW 1031,9 30 60 0,0
14.02.2019 16:00:00 14,1 7,4 18,8 9,9 11,1 14 8 22 12 S 1032,3 30 60 0,0
14.02.2019 15:00:00 14,7 7,0 20,0 9,9 11,1 13 7 23 12 S 1032,5 30 60 0,0
14.02.2019 14:00:00 14,8 5,0 19,4 10,0 11,2 18 10 23 12 S 1033,1 30 60 0,0
14.02.2019 13:00:00 14,3 4,8 19,4 10,0 11,1 15 8 19 11 SSW 1034,0 30 60 0,0
14.02.2019 12:00:00 13,4 4,3 17,7 10,0 11,1 12 7 19 10 SSW 1034,9 40 60 0,0
14.02.2019 11:00:00 13,6 0,9 14,6 10,0 11,1 14 8 28 15 NW 1035,0 40 60 0,0
14.02.2019 10:00:00 11,2 0,6 11,3 9,9 11,2 18 10 23 13 NNW 1035,3 40 60 0,0
14.02.2019 09:00:00 8,8 0,5 6,9 10,0 11,2 16 8 24 13 NNW 1035,8 40 60 0,0
14.02.2019 08:00:00 7,2 0,6 5,7 10,0 11,2 17 9 29 16 NNW 1036,2 40 6 0,0
14.02.2019 07:00:00 7,1 0,5 5,8 10,0 11,2 14 8 21 12 NNW 1036,1 58 0 0,0
14.02.2019 06:00:00 7,3 0,9 5,9 9,9 11,2 17 9 24 13 NNW 1036,2 30 0 0,0
14.02.2019 05:00:00 7,5 1,3 5,7 9,9 11,2 13 7 29 16 NNW 1035,9 30 0 0,0
14.02.2019 04:00:00 7,2 2,1 5,8 9,9 11,2 18 10 26 14 NNW 1036,1 30 0 0,0
14.02.2019 03:00:00 7,2 2,5 6,4 9,9 11,2 21 12 26 14 NNW 1036,7 30 0 0,0
14.02.2019 02:00:00 8,0 3,1 6,3 9,9 11,3 18 10 22 12 NNW 1036,9 30 0 0,0
14.02.2019 01:00:00 7,9 3,7 5,9 9,9 11,3 12 7 16 9 NW 1036,9 30 0 0,0
14.02.2019 00:00:00 8,1 4,1 6,7 9,9 11,2 14 7 23 12 NNW 1036,1 30 0 0,0
13.02.2019 23:00:00 8,0 4,4 6,9 9,9 11,3 17 9 29 15 NNW 1036,1 30 0 0,0
13.02.2019 22:00:00 8,4 4,8 7,0 9,9 11,3 13 7 18 10 NNW 1035,9 30 0 0,0
13.02.2019 21:00:00 8,8 5,0 6,8 9,9 11,2 12 7 18 10 NNW 1035,6 30 0 0,0
13.02.2019 20:00:00 9,2 4,8 7,5 9,9 11,3 10 5 12 6 NW 1035,5 30 0 0,0
13.02.2019 19:00:00 12,0 5,4 10,2 9,9 11,3 10 5 14 8 ENE 1035,2 30 0 0,0
13.02.2019 18:00:00 12,2 4,9 10,5 9,9 11,2 9 5 11 6 E 1034,5 30 35 0,0
13.02.2019 17:00:00 13,1 6,0 15,7 9,9 11,2 6 3 10 6 ESE 1034,3 30 60 0,0
13.02.2019 16:00:00 13,6 6,7 17,6 9,9 11,2 8 5 16 9 ESE 1034,1 30 60 0,0
13.02.2019 15:00:00 13,8 8,0 18,0 9,9 11,3 11 6 19 10 ESE 1034,2 30 60 0,0
13.02.2019 14:00:00 13,7 8,1 17,7 9,9 11,3 16 8 22 12 E 1034,4 30 60 0,0
13.02.2019 13:00:00 13,9 7,9 17,9 9,9 11,3 17 9 23 13 E 1034,8 30 60 0,0
13.02.2019 12:00:00 14,2 4,7 18,2 9,9 11,3 14 7 21 11 E 1034,8 30 60 0,0
13.02.2019 11:00:00 12,8 -1,2 13,0 9,9 11,3 11 6 26 14 NNW 1034,5 30 60 0,0
13.02.2019 10:00:00 9,6 -4,8 9,2 10,0 11,3 22 12 32 18 NNW 1033,8 30 60 0,0
13.02.2019 09:00:00 7,3 -5,4 5,9 9,9 11,3 26 14 33 18 NNW 1033,4 30 58 0,0
13.02.2019 08:00:00 6,2 -5,8 5,0 10,0 11,3 22 12 31 17 NNW 1032,6 30 5 0,0
13.02.2019 07:00:00 6,2 -5,8 5,0 9,9 11,3 19 10 24 13 NNW 1031,7 40 0 0,0
13.02.2019 06:00:00 6,7 -5,0 4,8 10,0 11,3 16 8 22 12 NW 1031,2 40 0 0,0
13.02.2019 05:00:00 6,3 -5,4 4,8 9,9 11,2 16 8 24 13 NNW 1030,2 40 0 0,0
13.02.2019 04:00:00 6,8 -5,2 5,5 9,9 11,3 20 11 27 15 NNW 1029,7 40 0 0,0
13.02.2019 03:00:00 6,9 -4,8 5,4 9,9 11,2 18 10 23 12 NNW 1029,8 40 0 0,0
13.02.2019 02:00:00 7,4 -3,2 5,3 9,9 11,2 13 7 17 9 NW 1029,6 40 0 0,0
13.02.2019 01:00:00 8,2 -3,3 5,9 9,9 11,2 13 7 15 8 NNW 1028,9 40 0 0,0
13.02.2019 00:00:00 8,0 -3,2 6,2 9,9 11,3 10 6 14 8 NNW 1028,1 40 0 0,0
12.02.2019 23:00:00 8,3 -2,4 6,4 9,9 11,3 13 7 16 9 NNW 1027,4 40 0 0,0
12.02.2019 22:00:00 9,1 -1,1 7,0 9,9 11,2 14 8 16 9 NNW 1026,7 40 0 0,0
12.02.2019 21:00:00 9,9 1,8 7,5 9,9 11,3 11 6 15 8 N 1026,1 40 0 0,0
12.02.2019 20:00:00 10,1 3,1 7,6 10,0 11,2 9 5 16 9 NNE 1025,4 40 0 0,0
12.02.2019 19:00:00 11,7 3,5 10,1 10,0 11,2 13 7 18 10 NNE 1024,8 40 0 0,0
12.02.2019 18:00:00 13,1 7,3 11,7 10,0 11,3 12 6 15 8 ENE 1023,9 40 0 0,0
12.02.2019 17:00:00 13,7 7,7 13,3 10,0 11,3 2 1 15 8 S 1024,1 40 41 0,0
12.02.2019 16:00:00 13,8 7,3 14,8 10,0 11,3 13 7 29 16 SSW 1024,2 40 3 0,0
12.02.2019 15:00:00 13,3 6,2 15,0 10,0 11,3 24 13 35 19 SSW 1024,3 40 17 0,0
12.02.2019 14:00:00 14,1 1,4 16,4 10,0 11,3 20 11 27 14 SSW 1024,6 50 51 0,0
12.02.2019 13:00:00 13,6 1,6 18,2 10,0 11,3 23 12 29 16 SSW 1025,2 50 60 0,0
12.02.2019 12:00:00 15,4 -9,6 16,8 10,1 11,2 11 6 28 15 WNW 1026,1 50 60 0,0
12.02.2019 11:00:00 12,9 -8,9 14,1 10,1 11,3 19 10 33 18 NNW 1026,7 50 60 0,0
12.02.2019 10:00:00 10,9 -9,5 11,5 10,1 11,3 18 10 27 14 NNW 1027,0 50 60 0,0
12.02.2019 09:00:00 8,5 -10,4 5,7 10,1 11,3 17 9 28 15 NNW 1026,7 50 60 0,0
12.02.2019 08:00:00 6,7 -10,1 5,1 10,1 11,3 14 7 34 19 N 1026,1 50 3 0,0
12.02.2019 07:00:00 6,6 -10,2 5,0 10,1 11,2 24 13 35 19 NNW 1025,4 50 0 0,0
12.02.2019 06:00:00 6,5 -10,3 4,7 10,1 11,3 23 12 33 18 NNW 1024,9 50 0 0,0
12.02.2019 05:00:00 6,1 -9,8 4,4 10,1 11,3 21 11 34 18 NNW 1024,5 50 0 0,0
12.02.2019 04:00:00 6,4 -9,5 3,8 10,1 11,2 26 14 32 18 NNW 1023,8 50 0 0,0
12.02.2019 03:00:00 6,6 -9,4 4,8 10,1 11,2 21 12 29 16 NNW 1023,7 50 0 0,0
12.02.2019 02:00:00 6,7 -9,3 3,5 10,1 11,4 16 9 26 14 NNW 1023,5 50 0 0,0
12.02.2019 01:00:00 6,5 -8,6 2,7 10,1 11,3 14 7 19 10 NNW 1023,3 50 0 0,0
12.02.2019 00:00:00 8,5 -9,9 5,8 10,1 11,3 8 4 22 12 NNW 1022,3 50 0 0,0
11.02.2019 23:00:00 9,5 -11,2 4,9 10,1 11,3 9 5 16 9 N 1021,5 50 0 0,0
11.02.2019 22:00:00 8,9 -9,1 4,3 10,1 11,3 3 2 19 11 NW 1021,0 50 0 0,0
11.02.2019 21:00:00 9,0 -9,0 5,7 10,1 11,3 8 4 21 11 NNW 1019,8 50 0 0,0
11.02.2019 20:00:00 11,8 -11,8 6,0 10,1 11,3 8 5 15 8 NNW 1019,2 50 0 0,0
11.02.2019 19:00:00 12,8 -12,5 9,0 10,1 11,3 14 8 34 19 N 1017,9 50 0 0,0
11.02.2019 18:00:00 14,0 -12,3 12,0 10,1 11,2 22 12 38 21 N 1016,8 50 32 0,0
11.02.2019 17:00:00 15,6 -11,9 16,2 10,1 11,3 24 13 42 23 N 1015,7 50 60 0,0
11.02.2019 16:00:00 16,1 -10,6 17,9 10,1 11,3 20 11 52 28 NNW 1014,8 50 60 0,0
11.02.2019 15:00:00 16,2 -9,7 18,1 10,1 11,3 32 17 51 28 NW 1014,3 50 60 0,0
11.02.2019 14:00:00 16,2 -9,7 17,7 10,1 11,2 33 18 56 30 NW 1014,4 50 60 0,0
11.02.2019 13:00:00 15,6 -8,7 17,4 10,1 11,3 34 18 56 30 NW 1014,8 50 60 0,0
11.02.2019 12:00:00 15,4 -12,0 16,7 10,1 11,3 32 17 52 28 NW 1015,0 50 60 0,0
11.02.2019 11:00:00 14,3 -8,4 15,3 10,1 11,3 33 18 66 36 WNW 1014,9 50 60 0,0
11.02.2019 10:00:00 13,4 -8,5 13,6 10,1 11,3 29 16 50 27 NW 1014,7 50 60 0,0
11.02.2019 09:00:00 12,1 -7,9 8,8 10,1 11,2 24 13 37 20 NNW 1014,5 50 60 0,0
11.02.2019 08:00:00 10,6 -6,7 6,4 10,1 11,3 11 6 38 20 NNW 1014,0 30 2 0,0
11.02.2019 07:00:00 9,5 -4,1 6,1 10,1 11,3 2 1 34 18 WSW 1012,7 30 0 0,0
11.02.2019 06:00:00 10,6 -1,8 9,2 10,1 11,2 26 14 40 22 W 1012,6 30 0 0,0
11.02.2019 05:00:00 11,0 -1,8 9,6 10,1 11,3 26 14 45 24 W 1011,9 30 0 0,0
11.02.2019 04:00:00 10,6 0,3 9,3 10,1 11,3 35 19 52 28 W 1011,0 30 0 0,0
11.02.2019 03:00:00 11,3 -0,5 10,1 10,0 11,2 39 21 61 33 W 1010,7 15 0 0,0
11.02.2019 02:00:00 11,8 -1,7 10,6 10,0 11,3 45 24 63 34 W 1010,1 15 0 0,0
11.02.2019 01:00:00 12,3 -1,6 11,0 10,0 11,2 37 20 61 33 W 1009,4 15 0 0,0
11.02.2019 00:00:00 12,9 0,3 11,3 10,0 11,3 31 17 62 34 W 1008,8 15 0 0,0
10.02.2019 23:00:00 12,6 3,0 11,4 10,0 11,2 44 24 61 33 W 1008,1 15 0 0,0
10.02.2019 22:00:00 12,7 7,6 11,4 10,0 11,3 38 20 51 28 WSW 1008,7 15 0 0,0
10.02.2019 21:00:00 12,3 8,8 9,9 10,0 11,2 27 14 56 30 W 1009,4 15 0 0,0
10.02.2019 20:00:00 11,4 9,1 10,1 10,0 11,3 17 9 29 15 W 1010,6 10 0 0,0
10.02.2019 19:00:00 11,3 9,4 8,6 10,0 11,2 10 5 22 12 W 1010,9 10 0 0,0
10.02.2019 18:00:00 10,9 8,6 9,5 10,1 11,3 7 4 13 7 W 1011,3 10 1 0,0

tt = Température de l'air
td = dewpoint
tt 5cm = Température de l'air 5cm
tt -20cm = Température de l'air -20cm
tt -100cm = Température de l'air -100cm
ff = Vitesse du vent
fx = gusts
dd = Direction du vent
ppp = reduced air pressure
vv = visibility
sd = Ensoleillement
rr = Quantités de précipitations

stations d'obs. à proximité